{"data":{"norad_id":65428,"epoch":"2026-09-20T16:09:05.681088Z","epoch_age_seconds":99914,"freshness":"FRESH","line1":"1 65428U 25192AA  26263.67298242  .00019879  00000+0  59754-3 0  9999","line2":"2 65428  53.1643  44.7838 0000726  89.3607 270.7479 15.34419821 59267","mean_motion":15.34419821,"eccentricity":7.26e-5,"inclination_deg":53.1643,"raan_deg":44.7838,"arg_perigee_deg":89.3607,"mean_anomaly_deg":270.7479,"bstar":0.00059754,"rev_number":5926,"period_min":93.846545794849,"perigee_km":462.14768792773,"apogee_km":463.14096937665,"semimajor_km":6840.7813286522,"source":"CELESTRAK","updated_at":"2026-09-21T09:00:35.607154Z"}}